Regional Weather Roundup
Issued by NWS Charleston, SC

Current Version | Previous Version | Graphics & Text | Print | Product List | Glossary On
Versions: 1 2 3 4 5 6 7 8 9 10 11 12 13 14 15 16 17 18 19 20 21 22 23 24 25 26 27 28 29 30 31 32 33 34 35 36 37 38 39 40 41 42 43 44 45 46 47 48 49 50
000
ASUS42 KCHS 052212
RWRCHS

REGIONAL WEATHER ROUNDUP
NATIONAL WEATHER SERVICE CHARLESTON SC
500 PM EST MON DEC 05 2016

NOTE: "FAIR" INDICATES FEW OR NO CLOUDS BELOW 12,000 FEET WITH NO
SIGNIFICANT WEATHER AND/OR OBSTRUCTIONS TO VISIBILITY.

NOT ALL STATIONS ARE QUALITY CONTROLLED. USE DATA WITH CAUTION...
ESPECIALLY DEWPOINT OBSERVATIONS.

SCZ027-030-031-034>040-042>050-052300-
...SOUTHEAST SOUTH CAROLINA...

CITY           SKY/WX    TMP DP  RH WIND       PRES   REMARKS
N CHARLESTON   CLOUDY    61  55  81 E7        29.95S
WATERFRONT PRK   N/A     60  57  89 N5        29.94R
MOUNT PLEASANT NOT AVBL
JOHNS ISLAND   CLOUDY    61  57  88 NE7       29.95S
PINOPOLIS        N/A     59  55  88 NE8       29.86S
MONCKS CORNER  CLOUDY    57  54  88 CALM      29.95F
SUMMERVILLE    CLOUDY    59  55  88 CALM      29.96S
BEAUFORT MCAS  HVY RAIN  59  58  96 NE7       29.93S FOG
BEAUFORT ARPT  CLOUDY    59  59 100 NE7       29.93S FOG
HILTON HEAD IS NOT AVBL
WALTERBORO     RAIN      61 N/A N/A CALM      29.96S
ALLENDALE      HVY RAIN  57  55  94 CALM      29.96R VSB 3/4

...SOUTHERN MIDLANDS AND PEE DEE...

CITY           SKY/WX    TMP DP  RH WIND       PRES   REMARKS
GEORGETOWN     NOT AVBL
KINGSTREE      FAIR      55  48  76 CALM      29.97S
ORANGEBURG     MOCLDY    57  51  80 NE8       29.96R
BARNWELL       NOT AVBL
AIKEN          CLOUDY    54  50  87 NE3       30.00R
MANNING        MOCLDY    55  50  82 NE3       29.97S
COLUMBIA       CLOUDY    59  50  72 CALM      29.97R
SUMTER         CLOUDY    57  50  76 NE5       29.95R
FLORENCE       CLOUDY    58  50  75 NE6       29.98S
MYRTLE BEACH   PTCLDY    61  50  67 NE7       30.00R
N MYRTLE BEACH CLOUDY    58  52  80 NE5       29.97R

$$

GAZ063-065-086>088-099>101-113>116-118-119-134>141-150-052300-
...SOUTHEAST GEORGIA...

CITY           SKY/WX    TMP DP  RH WIND       PRES   REMARKS
SAVANNAH ARPT  FOG       62  59  90 NE5       29.92S VSB 3/4
HUNTER AAF     CLOUDY    61  61 100 NE3       29.89S FOG
FORT STEWART   NOT AVBL
STATESBORO     CLOUDY    58  58 100 CALM      29.93F
SYLVANIA       HVY RAIN N/A N/A N/A E5        29.94S
CLAXTON        DRIZZLE  N/A N/A N/A N3        29.92F

...CSRA...CENTRAL AND FAR SOUTHEAST GEORGIA...

CITY           SKY/WX    TMP DP  RH WIND       PRES   REMARKS
THOMSON        CLOUDY    54  54 100 CALM      30.00F
AUGUSTA-BUSH   LGT RAIN  58  53  84 CALM      29.97R
AUGUSTA-DANIEL LGT RAIN  57  52  83 N3        29.98R
SWAINSBORO     LGT RAIN  55  54  94 E5        29.93F
VIDALIA        RAIN      59  59 100 NE5       29.91F
EASTMAN        LGT RAIN  56  56 100 NE5       29.91F
HAZLEHURST     CLOUDY    59  59 100 E5        29.88F FOG
ALMA           FOG       61  61 100 CALM      29.87F VSB 1/2
WAYCROSS       FOG       68  68 100 NE5       29.87F VSB 1
JESUP          CLOUDY    64  64 100 E3        29.89F FOG
BAXLEY         FOG       61  61 100 NE6       29.88F VSB 1/2
BRUNSWICK      CLOUDY    64  64 100 E5        29.90S FOG
SAINT SIMONS   CLOUDY    69  66  90 E7        29.88F

$$

SCZ027-028-034-036>038-045-046-048>050-GAZ119-141-052300-
...LAKE AND SUPPLEMENTAL COASTAL OBSERVATIONS...

STATION/POSITION TIME  TEMP    WIND        PRES    WAVE   SWELL
                       AIR SEA DIR/SP/G            HT/PER HT/PER/DIR
                 (UTC) (F)     (DEG/KT/KT) (MB)    (FT/S) (FT/S/D)
WINYAH BAY       2045   60      60/  6     1014.0
LAKE MURRAY      2120   57     200/  4/  4 1014.2
ACE BASIN NERRS  2045   61      30/  1     1013.0
FORT PULASKI     2148   59 62   70/  9/ 10 1013.3F
SAPELO ISLAND    2100   64      60/  5     1013.0

$$

ANZ835-935-AMZ111-154-330-350-352-354-370-450-454-472-052300-
...C-MAN AND BUOY OBSERVATIONS...

STATION/POSITION TIME  TEMP    WIND        PRES    WAVE   SWELL
                       AIR SEA DIR/SP/G            HT/PER HT/PER/DIR
                 (UTC) (F)     (DEG/KT/KT) (MB)    (FT/S) (FT/S/D)
BUOY 41004       2150   64 73   30/ 14/ 16 1013.7R   4/ 7   3/180/ 7
BUOY 41008       2150   66 65   50/  6/  6 1012.2F   3/ 6   2/140/ 6
FOLLY BEACH CMAN 2100   59      80/  7/  7 1014.5S
CAPERS NEARSHORE 2108   59 62   60/  8/ 10 1013.9S
FRIPP NEARSHORE  2108   60 62   60/  8/ 10 1013.3R


STATION/POSITION TIME  TEMP    WIND        PRES    WAVE   SWELL
                       AIR SEA DIR/SP/G            HT/PER HT/PER/DIR
                 (UTC) (F)     (DEG/KT/KT) (MB)    (FT/S) (FT/S/D)
5E ST. MARYS GA  2200      66                N/A     2/ 6
FRYING PAN BUOY  2150   62 74   40/ 16/ 21 1014.6R   5/ 7   2/ 80/ 9
BUOY 41025       2150   57 71   10/ 17/ 21 1015.5R   5/ 5   2/160/ 8
CAPE LOOKOUT NC  2100   56      10/ 15/ 19 1015.1R
BUOY 41002       2150   74 74  200/ 19/ 25 1014.3R   7/ 7   2/ 30/ 9
BUOY 41010       NOT AVBL
ST AUGUSTINE FL  2200   70 69  160/  6/  6 1012.7F


$$



USA.gov is the U.S. government's official web portal to all federal, state and local government web resources and services.